SHT21B EGJB-EGLL

Flight info

Callsign SHT21B
Flight time 0h 38m
Altitude 19000
Route ORIST L982 ROXOG
Aircraft A20N/M-SDE2E3FGHIJ1RWXY/LB1

Departure

Time 2026-04-23 16:22
Airport Guernsey Airport (EGJB)

Arrival

Time 2026-04-23 17:00
Airport London Heathrow Airport (EGLL)
Time Latitude Longitude Altitude Speed Heading
2026-04-23 16:10 49.43255 -2.59622 334 ft 0 kts 177°
2026-04-23 16:15 49.43267 -2.59623 334 ft 2 kts 178°
2026-04-23 16:15 49.43282 -2.59624 334 ft 2 kts 177°
2026-04-23 16:15 49.43296 -2.59625 333 ft 2 kts 178°
2026-04-23 16:15 49.43311 -2.59626 333 ft 2 kts 178°
2026-04-23 16:16 49.43326 -2.59627 333 ft 2 kts 178°
2026-04-23 16:16 49.43341 -2.59625 333 ft 2 kts 203°
2026-04-23 16:16 49.43354 -2.59613 334 ft 2 kts 227°
2026-04-23 16:16 49.43362 -2.59592 334 ft 2 kts 254°
2026-04-23 16:17 49.43364 -2.59579 334 ft 1 kts 270°
2026-04-23 16:17 49.43364 -2.59572 334 ft 0 kts 268°
2026-04-23 16:18 49.43363 -2.59611 334 ft 11 kts 268°
2026-04-23 16:19 49.43347 -2.59804 330 ft 23 kts 261°
2026-04-23 16:19 49.43340 -2.60062 324 ft 25 kts 266°
2026-04-23 16:19 49.43330 -2.60351 312 ft 29 kts 267°
2026-04-23 16:19 49.43333 -2.60675 303 ft 31 kts 279°
2026-04-23 16:20 49.43364 -2.60963 299 ft 24 kts 269°
2026-04-23 16:20 49.43357 -2.61211 299 ft 20 kts 274°
2026-04-23 16:20 49.43402 -2.61326 297 ft 13 kts 318°
2026-04-23 16:20 49.43464 -2.61342 296 ft 5 kts 73°
2026-04-23 16:21 49.43464 -2.61335 297 ft 0 kts 86°
2026-04-23 16:21 49.43477 -2.61024 297 ft 71 kts 87°
2026-04-23 16:21 49.43509 -2.59866 352 ft 137 kts 85°
2026-04-23 16:22 49.43551 -2.58419 1057 ft 138 kts 88°
2026-04-23 16:22 49.43591 -2.57092 1986 ft 127 kts 89°
2026-04-23 16:22 49.43627 -2.55824 2622 ft 129 kts 91°
2026-04-23 16:22 49.43659 -2.54343 3051 ft 148 kts 91°
2026-04-23 16:23 49.43696 -2.52728 3605 ft 161 kts 91°
2026-04-23 16:23 49.43785 -2.50955 4118 ft 180 kts 79°
2026-04-23 16:23 49.44463 -2.49206 4539 ft 215 kts 46°
2026-04-23 16:23 49.45838 -2.48210 5415 ft 230 kts 19°
2026-04-23 16:24 49.47366 -2.47678 6361 ft 230 kts 19°
2026-04-23 16:24 49.48941 -2.47100 7174 ft 237 kts 19°
2026-04-23 16:24 49.50588 -2.46474 7761 ft 255 kts 19°
2026-04-23 16:24 49.52361 -2.45795 8342 ft 273 kts 18°
2026-04-23 16:25 49.54226 -2.45087 9100 ft 282 kts 18°
2026-04-23 16:25 49.56128 -2.44369 10032 ft 284 kts 18°
2026-04-23 16:25 49.58022 -2.43653 10957 ft 286 kts 18°
2026-04-23 16:25 49.59960 -2.42915 11850 ft 288 kts 18°
2026-04-23 16:26 49.61902 -2.42173 12706 ft 291 kts 18°
2026-04-23 16:26 49.63849 -2.41429 13544 ft 294 kts 17°
2026-04-23 16:26 49.65807 -2.40678 14370 ft 296 kts 17°
2026-04-23 16:26 49.67792 -2.39916 15181 ft 299 kts 17°
2026-04-23 16:27 49.69741 -2.38803 15976 ft 298 kts 31°
2026-04-23 16:27 49.71395 -2.36911 16677 ft 302 kts 45°
2026-04-23 16:27 49.72802 -2.34501 17046 ft 317 kts 50°
2026-04-23 16:27 49.74248 -2.31846 17356 ft 335 kts 50°
2026-04-23 16:28 49.75777 -2.29026 17655 ft 351 kts 50°
2026-04-23 16:28 49.77358 -2.26120 17940 ft 366 kts 50°
2026-04-23 16:28 49.79010 -2.23096 18216 ft 381 kts 49°
2026-04-23 16:28 49.80710 -2.19985 18691 ft 388 kts 49°
2026-04-23 16:29 49.82428 -2.16837 19134 ft 391 kts 49°
2026-04-23 16:29 49.84161 -2.13664 19260 ft 392 kts 49°
2026-04-23 16:29 49.85905 -2.10471 19269 ft 392 kts 49°
2026-04-23 16:29 49.87632 -2.07307 19266 ft 391 kts 49°
2026-04-23 16:30 49.89366 -2.04124 19283 ft 391 kts 49°
2026-04-23 16:30 49.91079 -2.00975 19282 ft 391 kts 49°
2026-04-23 16:30 49.92798 -1.97812 19291 ft 389 kts 49°
2026-04-23 16:30 49.94503 -1.94671 19291 ft 389 kts 49°
2026-04-23 16:31 49.96225 -1.91494 19292 ft 389 kts 49°
2026-04-23 16:31 49.97964 -1.88318 19285 ft 389 kts 47°
2026-04-23 16:31 49.99869 -1.85478 19289 ft 389 kts 40°
2026-04-23 16:31 50.02011 -1.83048 19293 ft 390 kts 32°
2026-04-23 16:32 50.04277 -1.81075 19291 ft 390 kts 28°
2026-04-23 16:32 50.06688 -1.79166 19297 ft 390 kts 27°
2026-04-23 16:32 50.09066 -1.77306 19289 ft 390 kts 28°
2026-04-23 16:32 50.11337 -1.75319 19289 ft 390 kts 32°
2026-04-23 16:33 50.13507 -1.73082 19297 ft 390 kts 36°
2026-04-23 16:33 50.15619 -1.70548 19295 ft 390 kts 39°
2026-04-23 16:33 50.17651 -1.67933 19292 ft 390 kts 40°
2026-04-23 16:33 50.19683 -1.65282 19290 ft 390 kts 40°
2026-04-23 16:34 50.21726 -1.62618 19297 ft 390 kts 40°
2026-04-23 16:34 50.23751 -1.59987 19296 ft 390 kts 39°
2026-04-23 16:34 50.25933 -1.57566 19299 ft 391 kts 32°
2026-04-23 16:34 50.28262 -1.55646 19287 ft 392 kts 25°
2026-04-23 16:35 50.30642 -1.54234 19285 ft 394 kts 20°
2026-04-23 16:35 50.33187 -1.52965 19292 ft 393 kts 18°
2026-04-23 16:35 50.35747 -1.51734 19295 ft 394 kts 18°
2026-04-23 16:35 50.38275 -1.50516 19295 ft 394 kts 18°
2026-04-23 16:36 50.40823 -1.49278 19297 ft 394 kts 18°
2026-04-23 16:36 50.43378 -1.48030 19298 ft 395 kts 18°
2026-04-23 16:36 50.45930 -1.46777 19300 ft 395 kts 19°
2026-04-23 16:36 50.48480 -1.45522 19305 ft 395 kts 19°
2026-04-23 16:37 50.51002 -1.44251 19302 ft 394 kts 20°
2026-04-23 16:37 50.53491 -1.42769 19307 ft 393 kts 24°
2026-04-23 16:37 50.55924 -1.41029 19313 ft 394 kts 27°
2026-04-23 16:37 50.58284 -1.39091 19148 ft 393 kts 29°
2026-04-23 16:38 50.60627 -1.37081 18831 ft 388 kts 30°
2026-04-23 16:38 50.62898 -1.35116 18484 ft 378 kts 30°
2026-04-23 16:38 50.65104 -1.33207 18187 ft 370 kts 31°
2026-04-23 16:38 50.67231 -1.31366 17906 ft 368 kts 31°
2026-04-23 16:39 50.69407 -1.29484 17641 ft 367 kts 31°
2026-04-23 16:39 50.71574 -1.27612 17420 ft 366 kts 31°
2026-04-23 16:39 50.73756 -1.25729 17194 ft 365 kts 31°
2026-04-23 16:39 50.75882 -1.23856 16886 ft 363 kts 33°
2026-04-23 16:40 50.77960 -1.21831 16682 ft 361 kts 35°
2026-04-23 16:40 50.80047 -1.19696 16423 ft 359 kts 36°
2026-04-23 16:40 50.82074 -1.17601 16202 ft 358 kts 36°
2026-04-23 16:40 50.84127 -1.15477 15967 ft 357 kts 36°
2026-04-23 16:41 50.86140 -1.13393 15688 ft 355 kts 36°
2026-04-23 16:41 50.88169 -1.11292 15402 ft 353 kts 36°
2026-04-23 16:41 50.90200 -1.09188 15129 ft 351 kts 36°
2026-04-23 16:41 50.92194 -1.07121 14795 ft 345 kts 36°
2026-04-23 16:42 50.94144 -1.05099 14409 ft 339 kts 36°
2026-04-23 16:42 50.96051 -1.03120 14026 ft 332 kts 36°
2026-04-23 16:42 50.97930 -1.01168 13706 ft 323 kts 37°
2026-04-23 16:42 50.99666 -0.99191 13386 ft 302 kts 41°
2026-04-23 16:43 51.01165 -0.97144 13029 ft 284 kts 46°
2026-04-23 16:43 51.02499 -0.94997 12523 ft 276 kts 50°
2026-04-23 16:43 51.03727 -0.92820 12052 ft 275 kts 51°
2026-04-23 16:43 51.04959 -0.90614 11635 ft 274 kts 50°
2026-04-23 16:44 51.06200 -0.88397 11232 ft 272 kts 50°
2026-04-23 16:44 51.07413 -0.86228 10846 ft 271 kts 50°
2026-04-23 16:44 51.08638 -0.84037 10450 ft 270 kts 50°
2026-04-23 16:44 51.09852 -0.81870 10073 ft 269 kts 50°
2026-04-23 16:45 51.11052 -0.79727 9708 ft 268 kts 50°
2026-04-23 16:45 51.12241 -0.77600 9398 ft 265 kts 50°
2026-04-23 16:45 51.13427 -0.75479 9056 ft 263 kts 50°
2026-04-23 16:45 51.14608 -0.73363 8637 ft 264 kts 50°
2026-04-23 16:46 51.15776 -0.71270 8371 ft 261 kts 50°
2026-04-23 16:46 51.16960 -0.69147 8357 ft 262 kts 50°
2026-04-23 16:46 51.18142 -0.67026 8357 ft 263 kts 50°
2026-04-23 16:46 51.19329 -0.64893 8330 ft 265 kts 50°
2026-04-23 16:47 51.20511 -0.62770 8144 ft 261 kts 50°
2026-04-23 16:47 51.21661 -0.60701 7753 ft 261 kts 50°
2026-04-23 16:47 51.22822 -0.58610 7421 ft 259 kts 50°
2026-04-23 16:47 51.23997 -0.56492 7370 ft 260 kts 50°
2026-04-23 16:48 51.25174 -0.54364 7368 ft 261 kts 50°
2026-04-23 16:48 51.26349 -0.52243 7368 ft 259 kts 50°
2026-04-23 16:48 51.27481 -0.50265 7360 ft 245 kts 44°
2026-04-23 16:48 51.28918 -0.49125 7355 ft 251 kts
2026-04-23 16:49 51.30119 -0.49225 7372 ft 283 kts 348°
2026-04-23 16:49 51.32392 -0.51680 7375 ft 328 kts 308°
2026-04-23 16:49 51.33314 -0.54819 7368 ft 320 kts 284°
2026-04-23 16:49 51.33691 -0.58142 7366 ft 303 kts 280°
2026-04-23 16:50 51.34020 -0.61023 7359 ft 287 kts 282°
2026-04-23 16:50 51.34422 -0.63771 7352 ft 272 kts 285°
2026-04-23 16:50 51.34912 -0.66562 7350 ft 259 kts 288°
2026-04-23 16:50 51.35442 -0.69270 7357 ft 260 kts 289°
2026-04-23 16:51 51.35980 -0.71918 7295 ft 256 kts 289°
2026-04-23 16:51 51.36529 -0.74591 6963 ft 257 kts 289°
2026-04-23 16:51 51.37206 -0.77146 6609 ft 256 kts 303°
2026-04-23 16:51 51.38079 -0.79468 6269 ft 257 kts 297°
2026-04-23 16:52 51.38759 -0.82046 5889 ft 261 kts 292°
2026-04-23 16:52 51.39371 -0.84704 5498 ft 258 kts 291°
2026-04-23 16:52 51.39971 -0.87309 5111 ft 254 kts 296°
2026-04-23 16:52 51.40962 -0.89461 4711 ft 247 kts 326°
2026-04-23 16:53 51.42450 -0.90515 4307 ft 230 kts 359°
2026-04-23 16:53 51.43913 -0.90185 3910 ft 213 kts 32°
2026-04-23 16:53 51.44943 -0.88743 3527 ft 199 kts 59°
2026-04-23 16:53 51.45635 -0.86936 3254 ft 187 kts 64°
2026-04-23 16:54 51.46211 -0.85235 3191 ft 171 kts 65°
2026-04-23 16:54 51.46761 -0.83567 3098 ft 171 kts 66°
2026-04-23 16:54 51.47195 -0.81872 2983 ft 168 kts 75°
2026-04-23 16:54 51.47432 -0.80086 2968 ft 168 kts 83°
2026-04-23 16:55 51.47551 -0.78261 2964 ft 167 kts 85°
2026-04-23 16:55 51.47638 -0.76458 2961 ft 167 kts 87°
2026-04-23 16:55 51.47691 -0.74599 2959 ft 167 kts 88°
2026-04-23 16:55 51.47716 -0.72758 2940 ft 167 kts 89°
2026-04-23 16:56 51.47727 -0.70954 2761 ft 166 kts 89°
2026-04-23 16:56 51.47729 -0.69169 2543 ft 160 kts 89°
2026-04-23 16:56 51.47729 -0.67503 2343 ft 154 kts 89°
2026-04-23 16:56 51.47728 -0.65871 2147 ft 148 kts 89°
2026-04-23 16:57 51.47727 -0.64336 1965 ft 134 kts 89°
2026-04-23 16:57 51.47727 -0.62923 1819 ft 128 kts 89°
2026-04-23 16:57 51.47728 -0.61545 1662 ft 128 kts 89°
2026-04-23 16:57 51.47729 -0.60159 1501 ft 127 kts 89°
2026-04-23 16:58 51.47730 -0.58803 1340 ft 127 kts 89°
2026-04-23 16:58 51.47733 -0.57469 1180 ft 126 kts 89°
2026-04-23 16:58 51.47734 -0.56164 1022 ft 126 kts 89°
2026-04-23 16:58 51.47737 -0.54842 863 ft 126 kts 89°
2026-04-23 16:59 51.47739 -0.53510 706 ft 125 kts 89°
2026-04-23 16:59 51.47742 -0.52201 552 ft 125 kts 89°
2026-04-23 16:59 51.47746 -0.50881 397 ft 125 kts 89°
2026-04-23 16:59 51.47747 -0.49603 238 ft 123 kts 89°
2026-04-23 17:00 51.47752 -0.48307 93 ft 120 kts 89°
2026-04-23 17:00 51.47757 -0.47240 86 ft 78 kts 89°
2026-04-23 17:00 51.47759 -0.46648 86 ft 42 kts 88°
2026-04-23 17:00 51.47761 -0.46302 84 ft 26 kts 92°
2026-04-23 17:01 51.47691 -0.46126 82 ft 16 kts 142°
2026-04-23 17:01 51.47629 -0.46067 82 ft 7 kts 175°
2026-04-23 17:01 51.47595 -0.46120 83 ft 8 kts 256°
2026-04-23 17:01 51.47593 -0.46229 82 ft 11 kts 269°
2026-04-23 17:02 51.47593 -0.46338 82 ft 8 kts 269°
2026-04-23 17:02 51.47592 -0.46428 83 ft 8 kts 269°
2026-04-23 17:02 51.47592 -0.46522 83 ft 9 kts 269°
2026-04-23 17:02 51.47591 -0.46633 83 ft 11 kts 269°
2026-04-23 17:03 51.47591 -0.46751 83 ft 10 kts 269°
2026-04-23 17:03 51.47591 -0.46874 83 ft 12 kts 269°
2026-04-23 17:03 51.47590 -0.47009 83 ft 13 kts 269°
2026-04-23 17:03 51.47585 -0.47157 85 ft 13 kts 265°
2026-04-23 17:04 51.47581 -0.47304 85 ft 14 kts 268°
2026-04-23 17:04 51.47579 -0.47481 85 ft 18 kts 269°
2026-04-23 17:04 51.47581 -0.47704 83 ft 23 kts 270°
2026-04-23 17:04 51.47580 -0.47962 82 ft 20 kts 265°
2026-04-23 17:05 51.47578 -0.48161 80 ft 10 kts 270°
2026-04-23 17:05 51.47578 -0.48222 80 ft 0 kts 269°
2026-04-23 17:06 51.47578 -0.48223 80 ft 0 kts 269°
2026-04-23 17:06 51.47577 -0.48269 80 ft 8 kts 269°
2026-04-23 17:06 51.47546 -0.48354 79 ft 11 kts 194°
2026-04-23 17:06 51.47465 -0.48361 78 ft 13 kts 179°
2026-04-23 17:07 51.47376 -0.48359 78 ft 13 kts 178°
2026-04-23 17:07 51.47282 -0.48356 78 ft 14 kts 181°
2026-04-23 17:07 51.47184 -0.48358 78 ft 14 kts 179°
2026-04-23 17:07 51.47083 -0.48356 78 ft 15 kts 178°
2026-04-23 17:08 51.46977 -0.48354 79 ft 15 kts 180°
2026-04-23 17:08 51.46895 -0.48365 81 ft 9 kts 211°
2026-04-23 17:08 51.46877 -0.48463 80 ft 11 kts 267°
2026-04-23 17:08 51.46876 -0.48606 78 ft 9 kts 269°
2026-04-23 17:09 51.46876 -0.48677 78 ft 0 kts 268°
2026-04-23 17:09 51.46873 -0.48681 78 ft 1 kts 207°
2026-04-23 17:09 51.46849 -0.48681 78 ft 5 kts 179°
2026-04-23 17:09 51.46824 -0.48681 79 ft 0 kts 179°